{"data":{"norad_id":68778,"epoch":"2026-05-25T04:00:03.998880Z","epoch_age_seconds":54412,"freshness":"FRESH","line1":"1 68778U 26086N   26145.16671295 -.01901918  00000+0 -24519-1 0  9995","line2":"2 68778  97.2846 182.0106 0001566  99.7199 216.6134 15.62158780  6073","mean_motion":15.6215878,"eccentricity":0.0001566,"inclination_deg":97.2846,"raan_deg":182.0106,"arg_perigee_deg":99.7199,"mean_anomaly_deg":216.6134,"bstar":-0.024519,"rev_number":607,"period_min":92.180130370614,"perigee_km":380.36390202666,"apogee_km":382.48099604609,"semimajor_km":6759.5594490364,"source":"CELESTRAK","updated_at":"2026-05-25T13:38:22.036621Z"}}